Regional Weather Roundup
Issued by NWS Little Rock, AR

Home | Current Version | Previous Version | Text Only | Print | Product List | Glossary On
Versions: 1 2 3 4 5 6 7 8 9 10 11 12 13 14 15 16 17 18 19 20 21 22 23 24 25 26 27 28 29 30 31 32 33 34 35 36 37 38 39 40 41 42 43 44 45 46 47
000
ASUS44 KLZK 301405
RWRLZK

WEATHER ROUNDUP FOR ARKANSAS
NATIONAL WEATHER SERVICE LITTLE ROCK AR
900 AM CDT THU JUL 30 2015

NOTE: "FAIR" INDICATES FEW OR NO CLOUDS BELOW 12,000 FEET WITH NO
SIGNIFICANT WEATHER AND/OR OBSTRUCTIONS TO VISIBILITY.

ARZ001-003-010-029-301500-
NORTHWEST ARKANSAS

CITY           SKY/WX    TMP DP  RH WIND       PRES   REMARKS
FAYETTEVILLE   SUNNY     78  72  81 VRB6      30.18R
FORT SMITH     SUNNY     83  72  69 E9        30.12R HX  88
HARRISON       MOSUNNY   77  64  64 E9        30.22R
BENTONVILLE    SUNNY     79  64  61 E12       30.20R
ROGERS         SUNNY     78  66  66 E12       30.20R
SILOAM SPGS    MOSUNNY   79  66  65 E6        30.16R
HIGHFILL       SUNNY     79  68  69 E13       30.19R
SPRINGDALE     SUNNY     77  70  78 E10       30.20R
$$

ARZ004-005-016-301500-
NORTH CENTRAL ARKANSAS

CITY           SKY/WX    TMP DP  RH WIND       PRES   REMARKS
BATESVILLE     MOSUNNY   79  64  61 N3        30.16R
FLIPPIN        SUNNY     79  64  61 NE5       30.18R
MTN HOME       SUNNY     76  62  62 NE6       30.19R
$$

ARZ040-041-301500-
WEST CENTRAL ARKANSAS

CITY           SKY/WX    TMP DP  RH WIND       PRES   REMARKS
MENA           SUNNY     84  75  74 E5        30.15R HX  92
MOUNT IDA      SUNNY     84  75  74 VRB3      30.11R HX  92
$$

ARZ009-017-025-026-028-301500-
NORTHEAST ARKANSAS

CITY           SKY/WX    TMP DP  RH WIND       PRES   REMARKS
JONESBORO      SUNNY     78  64  61 NE13      30.14R
NEWPORT        MOSUNNY   79  67  66 NE13      30.15R
WALNUT RIDGE   SUNNY     79  63  57 NE10      30.15R
BLYTHEVILLE    SUNNY     79  67  66 NE12      30.13R
$$

ARZ022-023-033-042-044-301500-
CENTRAL ARKANSAS

CITY           SKY/WX    TMP DP  RH WIND       PRES   REMARKS
LITTLE ROCK    SUNNY     84  68  58 NE12      30.11R HX  87
N LITTLE ROCK  SUNNY     84  70  62 NE15G21   30.11R HX  89
JACKSONVILLE   SUNNY     83  68  60 NE13      30.12R HX  86
SEARCY         SUNNY     82  65  56 NE15G21   30.14R
HOT SPRINGS    SUNNY     85  73  67 E6        30.12R HX  91
RUSSELLVILLE   SUNNY     83  67  58 E8        30.13R HX  85
$$

ARZ036-301500-
EAST ARKANSAS

CITY           SKY/WX    TMP DP  RH WIND       PRES   REMARKS
WEST MEMPHIS   SUNNY     82  67  60 NE16      30.09R
$$

ARZ050-053-066-070-073-301500-
SOUTHWEST ARKANSAS

CITY           SKY/WX    TMP DP  RH WIND       PRES   REMARKS
ARKADELPHIA    FAIR      87  78  74 NE7       30.09R HX  99
CAMDEN         SUNNY     86  75  70 NE9       30.07R HX  95
TEXARKANA      SUNNY     87  76  69 N5        30.08R HX  97
EL DORADO      SUNNY     87  76  69 N6        30.07R HX  97
DE QUEEN       SUNNY     86  76  71 E7        30.08R HX  96
$$

ARZ056-057-069-301500-
SOUTHEAST ARKANSAS

CITY           SKY/WX    TMP DP  RH WIND       PRES   REMARKS
PINE BLUFF     MOSUNNY   83  75  77 N10       30.10R HX  90
STUTTGART      SUNNY     82  68  61 NE15      30.10R HX  85
MONTICELLO     SUNNY     86  78  77 NE12G17   30.07R HX  98

$$




USA.gov is the U.S. government's official web portal to all federal, state and local government web resources and services.